Simultaneous Nadir Overpasses (SNOs) Predictions

Prediction of SNOs between AQUA and METOP-A Satellite Orbit:

Table of predicted SNOs for the next 14.0 days since TLE Epoch: 5/25/2018
Index Date (AQUA) Time (AQUA) Lat,Lon (AQUA) SZA (AQUA ) Date (METOP-A) Time (METOP-A) Lat,Lon (METOP-A) SZA (METOP-A ) Distance(km) Time Diff (sec)
1 05/26/2018 19:51:03 -74.35, 55.47 126.86 05/26/2018 19:50:39 -74.35, 55.40 126.85 2.26 24
2 05/26/2018 20:40:33 74.46,-137.14 53.25 05/26/2018 20:41:17 74.44,-137.04 53.23 3.39 44
3 05/29/2018 15:25:17 -74.35, 121.91 127.31 05/29/2018 15:24:55 -74.38, 121.87 127.28 3.44 22
4 05/29/2018 16:14:46 74.41, -70.59 52.75 05/29/2018 16:15:34 74.42, -70.69 52.76 3.12 48
5 06/01/2018 10:59:33 -74.40,-171.78 127.66 06/01/2018 10:59:12 -74.40,-171.66 127.65 3.60 21
6 06/01/2018 11:49:01 74.42, -4.18 52.36 06/01/2018 11:49:51 74.44, -4.22 52.38 3.16 50
7 06/04/2018 06:33:48 -74.41,-105.35 128.00 06/04/2018 06:33:30 -74.38,-105.32 128.02 3.43 18
8 06/04/2018 07:23:16 74.43, 62.23 52.03 06/04/2018 07:24:09 74.42, 62.12 52.01 3.58 53
9 06/07/2018 01:18:24 73.78, 154.88 51.04 06/07/2018 01:17:18 73.72, 152.16 51.10 84.80 66
10 06/07/2018 02:08:02 -74.42, -38.94 128.28 06/07/2018 02:07:46 -74.40, -38.85 128.30 3.11 16
11 06/07/2018 02:57:30 74.45, 128.62 51.75 06/07/2018 02:58:25 74.44, 128.58 51.74 1.72 55




NCC Satellite Simultaneous Nadir Overpasses (SNOs) Prediction Service
